Preview of NWS' New Version of Forecast
This preview is not operational and should not be used for support decisions.

Regional Weather Roundup (RWR)

Issued by National Weather Service (NWS)

                            
000
ASUS43 KDMX 210701
RWRIA 

WEATHER ROUNDUP FOR IOWA
NATIONAL WEATHER SERVICE DES MOINES IA
100 AM CST THU FEB 21 2019

NOTE: "FAIR" INDICATES FEW OR NO CLOUDS BELOW 12,000 FEET WITH NO
SIGNIFICANT WEATHER AND/OR OBSTRUCTIONS TO VISIBILITY.

* - THESE STATIONS ARE NOT NWS STATIONS...THUS NOT UNDER NWS
QUALITY CONTROL.  THEY ALSO DO NOT REPORT WEATHER SUCH 
AS PRECIPITATION OR FOG.  

IAZ001>003-012>014-020>022-031>034-043>046-210800-
   NORTHWEST IOWA
  
CITY           SKY/WX    TMP DP  RH WIND       PRES   REMARKS
CARROLL *      CLOUDY    10  10 100 W10       29.93R WCI  -3          
CHEROKEE *     CLOUDY     2   1  93 SW5       29.92R FOG     WCI  -7  
DENISON *      CLOUDY    12  10  92 CALM      29.96R FOG              
LE MARS *      CLOUDY     5   3  92 S7        29.94R FOG     WCI  -7  
ORANGE CITY *  CLOUDY     9   9 100 W13       29.89R WCI  -7          
SHELDON *      CLOUDY     7   7 100 SW14      29.87R WCI -10          
SIOUX CITY     CLOUDY     1   1 100 CALM      29.96R FOG              
SPENCER        CLOUDY     8   4  83 W3        29.88R                  
STORM LAKE *   CLOUDY    10   9  92 W13       29.89R WCI  -5          
$$
 
IAZ055>058-069>071-079>083-090>094-210800-
   SOUTHWEST IOWA
  
CITY           SKY/WX    TMP DP  RH WIND       PRES   REMARKS
ATLANTIC *     CLOUDY     9   9 100 S3        29.98R FOG              
AUDUBON *      CLEAR     12   9  85 CALM      29.95R                  
CLARINDA *     CLOUDY     9   7  92 CALM      30.05R                  
COUNCIL BLFS * PTCLDY    18  16  93 SW9       29.98R WCI   6          
CRESTON *      CLOUDY    14  12  92 SW7       30.00R WCI   4          
HARLAN  *      CLOUDY    10  10 100 SW7       29.97R WCI   0          
LAMONI         CLOUDY    20  13  74 W12       29.99R WCI   8          
RED OAK *      CLOUDY    12  10  92 SW5       30.01R WCI   4          
SHENANDOAH *   CLOUDY    10   7  85 CALM      30.04R                  
$$
 
IAZ047>049-059>061-072>074-084-210800-
   CENTRAL IOWA
  
CITY           SKY/WX    TMP DP  RH WIND       PRES   REMARKS
AMES           CLOUDY    12   9  87 W12       29.95R WCI  -2          
ANKENY *       CLOUDY    19  16  86 W6        29.99R WCI  11          
BOONE *        CLOUDY    14  14 100 W9        29.93R WCI   2          
CHARITON *     CLOUDY    19  16  86 SW9       29.99R WCI   9          
DES MOINES     CLOUDY    17  13  84 SW9       29.98R WCI   6          
GRINNELL*      CLOUDY    16  13  91 SW9       29.95R WCI   4          
KNOXVILLE *    CLOUDY    19  19 100 SW7       29.98R WCI  10          
MARSHALLTOWN   CLOUDY    12  10  92 SW10      29.94R WCI  -1          
NEWTON *       CLOUDY    16  14  93 SW9       29.97R WCI   4          
PELLA *        CLOUDY    20  16  83 SW6       30.00R WCI  13          
PERRY *        FAIR       6   5  93 SW13      29.95R FOG     WCI -10  
$$
 
IAZ004>006-015-016-023>025-035-036-210800-
   NORTH CENTRAL IOWA
  
CITY           SKY/WX    TMP DP  RH WIND       PRES   REMARKS
ALGONA *       CLOUDY     9   7  92 SW12      29.87R WCI  -6          
CLARION *      PTCLDY     7   3  85 W9        29.91R WCI  -7          
ESTHERVILLE    CLOUDY     3   0  87 SW13      29.86R WCI -14          
FORT DODGE *   CLOUDY     7   5  91 W6        29.92R FOG     WCI  -3  
MASON CITY     CLEAR     12   8  84 W16       29.88R WCI  -5          
FOREST CITY *  FAIR      12   9  85 W5        29.88R WCI   4          
IOWA FALLS *   FAIR      12   9  89 W13       29.93R WCI  -3          
$$

IAZ007>011-017>019-026>030-037>042-050>054-066-210800-
   NORTHEAST IOWA
  
CITY           SKY/WX    TMP DP  RH WIND       PRES   REMARKS
CEDAR RAPIDS   FAIR      16  13  88 SW9       29.94R WCI   4          
CHARLES CITY * FAIR      16  10  79 W15       29.89R WCI   1          
CLINTON *      FAIR      21  17  84 W13       29.97R WCI   9          
DECORAH *      FAIR      16  16 100 W9        29.86R WCI   4          
DUBUQUE        FAIR      21  14  74 W15       29.91R WCI   8          
OELWEIN *      FAIR      14  10  85 SW9       29.92R WCI   2          
WATERLOO       FAIR      15  11  83 SW9       29.93R WCI   3          
$$
 
IAZ064-065-067-068-078-210800-
   EAST CENTRAL IOWA
  
CITY           SKY/WX    TMP DP  RH WIND       PRES   REMARKS
DAVENPORT      FAIR      23  16  74 SW10      29.99R WCI  12          
IOWA CITY      FAIR      19  14  81 S3        29.99R                  
MT. PLEASANT * PTCLDY    23  21  93 SW6       30.01R WCI  16          
MUSCATINE *    FAIR      27  18  69 SW7       30.01R WCI  19          
QUAD CITIES    FAIR      28  19  69 SW8       29.98R WCI  20          
$$
 
IAZ062-063-075>077-085>089-095>099-210800-
   SOUTHEAST IOWA
  
CITY           SKY/WX    TMP DP  RH WIND       PRES   REMARKS
BURLINGTON     CLEAR     27  20  75 SW7       30.01R WCI  19          
FAIRFIELD *    CLOUDY    21  16  79 S8        29.99R WCI  12          
FORT MADISON * CLEAR     28  25  86 SW8       30.02R WCI  20          
KEOKUK *       CLEAR     28  25  86 SW6       30.02R WCI  22          
OSKALOOSA *    FAIR      17  13  86 W9        29.99R WCI   5          
OTTUMWA        CLOUDY    21  15  78 SW7       29.98R WCI  12          
WASHINGTON *   CLOUDY    21  18  86 SW9       30.00R WCI  11          
$$

ABBREVIATIONS USED IN REMARKS
   TC - TEMPERATURES IN CELSIUS
  WCI - WIND CHILL INDEX
   HX - HEAT INDEX
  VSB - VISIBILITY  
$$